This demonstration page uses our WeatherBlox Daily Observations layout. Learn more.

Left ArrowRight Arrow

Hourly Observations for July 30, 2016

Temp ( °F °C ) Dew Point ( °F °C ) Humidity (%) Winds ( mph kmh ) Pressure ( in mb ) Visibility ( mi km ) Precip ( " mm )
12:53 am 00:53 Clear 69 20.6 59 15 70 70 SE 10 17 30.02 1017 10 16 0.00 0.00
1:53 am 01:53 Mostly Cloudy 68 20 59 15 73 73 SE 9 15 30.00 1016 10 16 0.00 0.00
2:53 am 02:53 Partly Cloudy 67 19.4 59 15 76 76 SSE 9 15 30.00 1016 10 16 0.00 0.00
3:53 am 03:53 Clear 66 18.9 59 15 78 78 SE 9 15 29.99 1016 10 16 0.00 0.00
4:53 am 04:53 Mostly Cloudy 66 18.9 60 15.6 81 81 SE 8 13 30.00 1016 10 16 0.00 0.00
5:53 am 05:53 Mostly Cloudy 66 18.9 60 15.6 81 81 SE 8 13 29.97 1015 10 16 0.00 0.03
6:53 am 06:53 Mostly Cloudy 66 18.9 60 15.6 81 81 SE 10 17 29.97 1015 10 16 0.00 0.00
7:53 am 07:53 Sunny 65 18.3 60 15.6 84 84 SE 6 9 29.99 1016 10 16 0.00 0.00
8:40 am 08:40 Mostly Cloudy with Nearby Thunderstorms 65 18.3 60 15.6 84 84 SE 10 17 30.00 1016 10 16 0.00 0.00
9:02 am 09:02 Cloudy with Thunderstorms 64 17.8 60 15.6 87 87 NNE 13 20 30.03 1017 5 8 0.01 0.25
9:06 am 09:06 Cloudy with Strong Thunderstorms 63 17.2 61 16.1 93 93 NNE 14 22 30.03 1017 3 4 0.05 1.27
9:18 am 09:18 Cloudy with Thunderstorms 63 17 61 16 94 94 N 14 22 30.03 1017 4 6 0.00 0.00
9:29 am 09:29 Cloudy with Strong Thunderstorms 63 17 61 16 94 94 NNE 6 9 30.03 1017 2 3 0.00 0.00
9:38 am 09:38 Cloudy with Thunderstorms 63 17 63 17 100 100 N 3 6 30.03 1017 3 5 0.00 0.00
9:48 am 09:48 Cloudy with Nearby Thunderstorms 63 17 63 17 100 100 N 8 13 30.03 1017 10 16 0.00 0.00
9:53 am 09:53 Cloudy 63 17.2 62 16.7 97 97 NE 6 9 30.02 1017 10 16 0.20 5.08
10:03 am 10:03 Cloudy 63 17 63 17 100 100 E 7 11 30.03 1017 10 16 0.00 0.00
10:53 am 10:53 Cloudy 66 18.9 63 17.2 90 90 E 7 11 30.02 1017 10 16 0.00 0.00
11:53 am 11:53 Sunny 71 21.7 63 17.2 76 76 SSE 8 13 29.99 1016 10 16 0.00 0.00
12:53 pm 12:53 Sunny 77 25 64 17.8 64 64 S 7 11 29.97 1015 10 16 0.00 0.00
1:53 pm 13:53 Mostly Sunny 80 26.7 68 20 67 67 S 10 17 29.95 1014 10 16 0.00 0.00
2:53 pm 14:53 Partly Cloudy 82 27.8 68 20 63 63 S 8 13 29.93 1013 10 16 0.00 0.00
3:53 pm 15:53 Mostly Cloudy 84 28.9 66 18.9 55 55 SSE 9 15 29.92 1013 10 16 0.00 0.00
4:53 pm 16:53 Mostly Sunny 85 29.4 66 18.9 53 53 SSE 12 19 29.91 1013 10 16 0.00 0.00
5:53 pm 17:53 Mostly Sunny 83 28.3 66 18.9 57 57 SSE 9 15 29.89 1012 10 16 0.00 0.00
6:53 pm 18:53 Partly Cloudy 80 26.7 68 20 67 67 ESE 15 24 29.89 1012 10 16 0.00 0.00
7:53 pm 19:53 Sunny 78 25.6 67 19.4 69 69 SE 13 20 29.89 1012 10 16 0.00 0.00
8:53 pm 20:53 Clear 76 24.4 65 18.3 69 69 SE 13 20 29.89 1012 10 16 0.00 0.00
9:53 pm 21:53 Clear 74 23.3 64 17.8 71 71 ESE 12 19 29.93 1013 10 16 0.00 0.00
10:53 pm 22:53 Clear 72 22.2 65 18.3 79 79 SE 13 20 29.92 1013 10 16 0.00 0.00
11:53 pm 23:53 Clear 71 21.7 66 18.9 84 84 SE 12 19 29.91 1013 10 16 0.00 0.00

Powered by AerisWeather